No particular awareness of the weather is required.    There are no Weather-warnings


Meteo18 Weather Cam more information Meteo18 Weather Cam


Thunder radar more information blitzortung!


Rain radar more information rain snow radar


Visit our other weather sites:

Template documentation
and downloads

And another site



Weather Underground History page Text

Daily Summary for July 13, 2016 Units:  Metric    English   Both
« Previous Day
Next Day »
Daily Weekly Monthly Yearly Custom
  High: Low: Average:
Temperature: 19.3 °C 10.7 °C 15 °C
Dew Point: 14.1 °C 8.3 °C 11.4 °C
Humidity: 95 % 55 % 80 %
Wind Speed: 8.0 km/h 0.0 km/h 0.7 km/h
Wind Gust: 20.9 km/h - -
Wind:- - SE
Pressure: 1021.9 hPa 1015.5 hPa -
Precipitation: 8.9 mm    
Historical Graphs
 
 
Tabular Data for July 13, 2016
Time Temperature Dew Point Pressure Wind Wind Speed Wind Gust Humidity Rainfall Rate (Hourly)
00:02 14.7 °C 13.2 °C 1015.5 hPa Calm   6.4 km/h 91 % 0.0 mm
00:07 14.6 °C 13.0 °C 1015.5 hPa Calm   6.4 km/h 90 % 0.3 mm
00:12 14.5 °C 12.9 °C 1015.8 hPa Calm   6.4 km/h 90 % 0.3 mm
00:17 14.4 °C 12.9 °C 1015.8 hPa Calm   1.6 km/h 91 % 0.3 mm
00:22 14.3 °C 12.9 °C 1015.8 hPa Calm   1.6 km/h 91 % 0.3 mm
00:27 14.3 °C 12.9 °C 1016.1 hPa Calm     91 % 0.3 mm
00:32 14.3 °C 13.0 °C 1016.1 hPa Calm     92 % 0.3 mm
00:42 14.3 °C 13.0 °C 1016.1 hPa Calm   1.6 km/h 92 % 0.3 mm
00:47 14.2 °C 13.1 °C 1016.1 hPa Calm   1.6 km/h 93 % 0.3 mm
00:52 14.2 °C 13.1 °C 1016.1 hPa Calm   1.6 km/h 93 % 0.3 mm
00:57 14.3 °C 13.2 °C 1016.1 hPa WSW 1.6 km/h 1.6 km/h 93 % 0.3 mm
01:02 14.3 °C 13.3 °C 1016.1 hPa Calm   1.6 km/h 94 % 0.0 mm
01:07 14.3 °C 13.3 °C 1016.1 hPa Calm   1.6 km/h 94 % 0.0 mm
01:12 14.3 °C 13.3 °C 1015.8 hPa Calm   1.6 km/h 94 % 0.0 mm
01:17 14.3 °C 13.3 °C 1016.1 hPa Calm   1.6 km/h 94 % 0.0 mm
01:22 14.3 °C 13.3 °C 1015.8 hPa Calm   1.6 km/h 94 % 0.0 mm
01:27 14.3 °C 13.3 °C 1015.8 hPa Calm   1.6 km/h 94 % 0.0 mm
01:32 14.3 °C 13.3 °C 1015.8 hPa Calm   1.6 km/h 94 % 0.0 mm
01:37 14.3 °C 13.3 °C 1015.8 hPa Calm   1.6 km/h 94 % 0.0 mm
01:42 14.3 °C 13.3 °C 1015.8 hPa Calm     94 % 0.0 mm
01:47 14.2 °C 13.2 °C 1016.1 hPa Calm     94 % 0.0 mm
01:52 14.2 °C 13.2 °C 1016.1 hPa Calm   1.6 km/h 94 % 0.0 mm
01:57 14.2 °C 13.2 °C 1015.8 hPa Calm   4.8 km/h 94 % 0.0 mm
02:02 14.1 °C 13.1 °C 1015.8 hPa Calm   4.8 km/h 94 % 0.0 mm
02:07 14.1 °C 13.1 °C 1015.8 hPa Calm   4.8 km/h 94 % 0.0 mm
02:12 14.0 °C 13.0 °C 1015.8 hPa Calm   3.2 km/h 94 % 0.0 mm
02:17 14.0 °C 13.0 °C 1016.1 hPa WSW 1.6 km/h 3.2 km/h 94 % 0.0 mm
02:22 14.0 °C 13.0 °C 1016.1 hPa Calm   3.2 km/h 94 % 0.0 mm
02:27 14.0 °C 13.0 °C 1016.1 hPa Calm   4.8 km/h 94 % 0.0 mm
02:32 14.0 °C 13.0 °C 1016.1 hPa Calm   4.8 km/h 94 % 0.0 mm
02:37 14.0 °C 13.0 °C 1016.1 hPa Calm   3.2 km/h 94 % 0.0 mm
02:47 13.9 °C 12.9 °C 1016.1 hPa Calm   3.2 km/h 94 % 0.0 mm
02:52 13.8 °C 12.7 °C 1016.1 hPa Calm   3.2 km/h 93 % 0.0 mm
02:57 13.8 °C 12.7 °C 1016.1 hPa Calm   1.6 km/h 93 % 0.0 mm
03:02 13.8 °C 12.7 °C 1016.1 hPa Calm   1.6 km/h 93 % 0.0 mm
03:07 13.8 °C 12.7 °C 1016.1 hPa Calm   1.6 km/h 93 % 0.0 mm
03:12 13.9 °C 12.8 °C 1016.1 hPa Calm   1.6 km/h 93 % 0.0 mm
03:17 13.9 °C 12.8 °C 1016.1 hPa Calm   1.6 km/h 93 % 0.0 mm
03:22 13.8 °C 12.7 °C 1016.1 hPa Calm   1.6 km/h 93 % 0.0 mm
03:27 13.8 °C 12.7 °C 1016.1 hPa Calm   1.6 km/h 93 % 0.0 mm
03:32 13.8 °C 12.9 °C 1016.1 hPa Calm   1.6 km/h 94 % 0.0 mm
03:37 13.7 °C 12.6 °C 1016.1 hPa Calm   1.6 km/h 93 % 0.0 mm
03:42 13.7 °C 12.6 °C 1016.1 hPa Calm   1.6 km/h 93 % 0.0 mm
03:47 13.7 °C 12.6 °C 1016.1 hPa Calm   1.6 km/h 93 % 0.0 mm
03:52 13.6 °C 12.5 °C 1016.1 hPa Calm   1.6 km/h 93 % 0.0 mm
03:57 13.6 °C 12.7 °C 1016.1 hPa Calm   1.6 km/h 94 % 0.0 mm
04:02 13.6 °C 12.7 °C 1016.1 hPa Calm   1.6 km/h 94 % 0.0 mm
04:07 13.6 °C 12.7 °C 1016.1 hPa Calm   1.6 km/h 94 % 0.0 mm
04:17 13.5 °C 12.6 °C 1016.1 hPa Calm   3.2 km/h 94 % 0.0 mm
04:22 13.5 °C 12.6 °C 1016.1 hPa Calm   3.2 km/h 94 % 0.0 mm
04:27 13.5 °C 12.6 °C 1016.1 hPa Calm   3.2 km/h 94 % 0.0 mm
04:32 13.5 °C 12.6 °C 1016.1 hPa Calm   3.2 km/h 94 % 0.0 mm
04:37 13.5 °C 12.6 °C 1016.1 hPa Calm   1.6 km/h 94 % 0.0 mm
04:42 13.4 °C 12.5 °C 1016.1 hPa SSW 3.2 km/h 3.2 km/h 94 % 0.0 mm
04:47 13.4 °C 12.5 °C 1016.1 hPa Calm   3.2 km/h 94 % 0.0 mm
04:52 13.3 °C 12.4 °C 1016.1 hPa Calm   3.2 km/h 94 % 0.0 mm
04:57 13.2 °C 12.3 °C 1016.1 hPa Calm   3.2 km/h 94 % 0.0 mm
05:02 13.2 °C 12.3 °C 1016.1 hPa Calm   3.2 km/h 94 % 0.0 mm
05:12 12.9 °C 12.0 °C 1016.1 hPa Calm     94 % 0.0 mm
05:17 12.8 °C 11.9 °C 1016.1 hPa Calm     94 % 0.0 mm
05:22 12.8 °C 11.9 °C 1016.1 hPa Calm     94 % 0.0 mm
05:32 12.8 °C 12.0 °C 1016.1 hPa Calm     95 % 0.0 mm
05:37 12.9 °C 12.1 °C 1016.1 hPa Calm     95 % 0.0 mm
05:42 12.8 °C 11.9 °C 1016.1 hPa Calm     94 % 0.0 mm
05:47 12.8 °C 12.0 °C 1016.1 hPa Calm     95 % 0.0 mm
05:52 12.8 °C 12.0 °C 1016.1 hPa Calm     95 % 0.0 mm
05:57 12.8 °C 12.0 °C 1016.1 hPa Calm     95 % 0.0 mm
06:02 12.8 °C 12.0 °C 1016.1 hPa Calm     95 % 0.0 mm
06:07 12.8 °C 11.9 °C 1016.5 hPa Calm     94 % 0.0 mm
06:12 12.7 °C 11.8 °C 1016.1 hPa Calm     94 % 0.0 mm
06:17 12.7 °C 11.8 °C 1016.5 hPa Calm     94 % 0.0 mm
06:22 12.7 °C 11.8 °C 1016.5 hPa Calm     94 % 0.0 mm
06:32 12.7 °C 11.8 °C 1016.5 hPa Calm     94 % 0.0 mm
06:37 12.7 °C 11.8 °C 1016.5 hPa Calm     94 % 0.0 mm
06:42 12.7 °C 11.8 °C 1016.5 hPa Calm     94 % 0.0 mm
06:47 12.8 °C 11.9 °C 1016.8 hPa Calm     94 % 0.0 mm
06:52 12.8 °C 11.9 °C 1016.8 hPa Calm     94 % 0.0 mm
07:02 12.9 °C 11.8 °C 1016.8 hPa Calm     93 % 0.0 mm
07:12 12.8 °C 11.7 °C 1016.8 hPa Calm     93 % 0.0 mm
07:17 12.8 °C 11.7 °C 1016.8 hPa Calm     93 % 0.0 mm
07:22 12.8 °C 11.5 °C 1016.8 hPa Calm     92 % 0.0 mm
07:32 12.9 °C 11.6 °C 1016.8 hPa Calm     92 % 0.0 mm
07:37 12.9 °C 11.6 °C 1016.8 hPa Calm     92 % 0.0 mm
07:42 13.0 °C 11.7 °C 1016.8 hPa Calm     92 % 0.0 mm
07:47 13.1 °C 11.7 °C 1016.8 hPa Calm   1.6 km/h 91 % 0.0 mm
07:52 13.2 °C 11.8 °C 1017.2 hPa SW 1.6 km/h 1.6 km/h 91 % 0.0 mm
07:57 13.2 °C 11.6 °C 1017.2 hPa Calm   3.2 km/h 90 % 0.0 mm
08:02 13.3 °C 11.5 °C 1017.2 hPa Calm   3.2 km/h 89 % 0.0 mm
08:12 13.1 °C 11.3 °C 1017.2 hPa Calm   3.2 km/h 89 % 0.0 mm
08:17 13.0 °C 11.2 °C 1017.2 hPa Calm   3.2 km/h 89 % 0.0 mm
08:22 12.9 °C 11.1 °C 1017.2 hPa Calm   3.2 km/h 89 % 0.0 mm
08:27 13.0 °C 11.2 °C 1017.2 hPa WSW 1.6 km/h 3.2 km/h 89 % 0.0 mm
08:32 13.2 °C 11.4 °C 1017.2 hPa SW 1.6 km/h 3.2 km/h 89 % 0.0 mm
08:37 13.3 °C 11.4 °C 1017.2 hPa Calm   1.6 km/h 88 % 0.0 mm
08:42 13.4 °C 11.5 °C 1017.5 hPa Calm   1.6 km/h 88 % 0.0 mm
08:47 13.4 °C 11.3 °C 1017.5 hPa Calm   3.2 km/h 87 % 0.0 mm
08:52 13.6 °C 11.5 °C 1017.5 hPa Calm   3.2 km/h 87 % 0.0 mm
08:57 13.7 °C 11.6 °C 1017.5 hPa WSW 1.6 km/h 3.2 km/h 87 % 0.0 mm
09:02 13.8 °C 11.7 °C 1017.5 hPa Calm   3.2 km/h 87 % 0.0 mm
09:07 13.9 °C 11.8 °C 1017.5 hPa WSW 1.6 km/h 3.2 km/h 87 % 0.0 mm
09:12 13.9 °C 11.8 °C 1017.5 hPa Calm   3.2 km/h 87 % 0.0 mm
09:17 14.2 °C 11.9 °C 1017.5 hPa Calm   4.8 km/h 86 % 0.0 mm
09:22 14.4 °C 11.9 °C 1017.5 hPa Calm   4.8 km/h 85 % 0.0 mm
09:27 14.7 °C 12.0 °C 1017.5 hPa Calm   3.2 km/h 84 % 0.0 mm
09:32 14.6 °C 11.4 °C 1017.5 hPa Calm   3.2 km/h 81 % 0.0 mm
09:37 14.6 °C 11.7 °C 1017.5 hPa SW 1.6 km/h 8.0 km/h 83 % 0.0 mm
09:42 14.8 °C 11.8 °C 1017.5 hPa Calm   8.0 km/h 82 % 0.0 mm
09:47 15.2 °C 11.8 °C 1017.8 hPa West 1.6 km/h 3.2 km/h 80 % 0.0 mm
09:57 15.3 °C 11.5 °C 1017.8 hPa West 1.6 km/h 4.8 km/h 78 % 0.0 mm
10:02 15.4 °C 11.8 °C 1017.8 hPa SW 3.2 km/h 4.8 km/h 79 % 0.0 mm
10:07 15.7 °C 11.9 °C 1017.8 hPa Calm   6.4 km/h 78 % 0.0 mm
10:12 15.9 °C 11.7 °C 1017.8 hPa Calm   6.4 km/h 76 % 0.0 mm
10:17 15.9 °C 11.5 °C 1017.8 hPa South 1.6 km/h 6.4 km/h 75 % 0.0 mm
10:22 16.1 °C 11.9 °C 1017.8 hPa Calm   6.4 km/h 76 % 0.0 mm
10:27 15.9 °C 11.5 °C 1017.8 hPa NE 1.6 km/h 6.4 km/h 75 % 0.0 mm
10:32 15.2 °C 11.0 °C 1017.8 hPa NE 3.2 km/h 11.3 km/h 76 % 0.0 mm
10:37 14.9 °C 11.1 °C 1017.8 hPa Calm   11.3 km/h 78 % 0.0 mm
10:42 15.6 °C 11.8 °C 1017.8 hPa West 1.6 km/h 11.3 km/h 78 % 0.0 mm
10:47 16.4 °C 12.4 °C 1017.8 hPa WSW 1.6 km/h 6.4 km/h 77 % 0.0 mm
10:52 16.7 °C 11.8 °C 1017.8 hPa WSW 1.6 km/h 3.2 km/h 73 % 0.0 mm
10:57 16.2 °C 11.8 °C 1017.8 hPa East 3.2 km/h 6.4 km/h 75 % 0.0 mm
11:02 15.6 °C 11.8 °C 1017.8 hPa Calm   12.9 km/h 78 % 0.3 mm
11:07 15.5 °C 12.4 °C 1017.8 hPa Calm   12.9 km/h 82 % 0.3 mm
11:12 16.1 °C 13.4 °C 1017.8 hPa Calm   3.2 km/h 84 % 0.3 mm
11:17 17.0 °C 13.1 °C 1017.8 hPa Calm   3.2 km/h 78 % 0.3 mm
11:22 17.0 °C 11.9 °C 1017.8 hPa NNE 1.6 km/h 6.4 km/h 72 % 0.3 mm
11:27 16.3 °C 12.1 °C 1018.2 hPa Calm   6.4 km/h 76 % 0.5 mm
11:32 14.9 °C 10.7 °C 1018.2 hPa Calm   8.0 km/h 76 % 1.3 mm
11:37 14.1 °C 10.7 °C 1018.2 hPa Calm   8.0 km/h 80 % 3.3 mm
11:42 13.9 °C 11.2 °C 1018.2 hPa Calm   8.0 km/h 84 % 3.3 mm
11:47 13.9 °C 11.8 °C 1018.2 hPa Calm   1.6 km/h 87 % 3.3 mm
11:57 15.6 °C 13.4 °C 1018.2 hPa Calm   1.6 km/h 87 % 3.0 mm
12:02 16.5 °C 14.1 °C 1018.2 hPa West 1.6 km/h 3.2 km/h 86 % 3.0 mm
12:12 16.9 °C 12.4 °C 1018.2 hPa Calm   8.0 km/h 75 % 3.0 mm
12:17 16.3 °C 12.3 °C 1018.2 hPa Calm   8.0 km/h 77 % 3.0 mm
12:22 16.8 °C 13.9 °C 1018.2 hPa Calm   8.0 km/h 83 % 3.0 mm
12:32 17.7 °C 12.6 °C 1018.5 hPa North 4.8 km/h 8.0 km/h 72 % 2.0 mm
12:42 14.4 °C 11.4 °C 1018.8 hPa Calm   12.9 km/h 82 % 3.0 mm
12:47 14.3 °C 12.0 °C 1018.8 hPa Calm   12.9 km/h 86 % 3.0 mm
12:52 14.8 °C 13.2 °C 1018.8 hPa Calm   4.8 km/h 90 % 3.0 mm
12:57 15.6 °C 13.3 °C 1018.8 hPa ESE 1.6 km/h 9.7 km/h 86 % 3.0 mm
13:02 15.8 °C 13.3 °C 1018.8 hPa Calm   11.3 km/h 85 % 3.0 mm
13:12 15.3 °C 12.4 °C 1018.8 hPa Calm   11.3 km/h 83 % 3.0 mm
13:17 15.3 °C 12.1 °C 1018.8 hPa Calm   6.4 km/h 81 % 3.0 mm
13:22 15.3 °C 12.1 °C 1018.8 hPa SE 3.2 km/h 9.7 km/h 81 % 3.0 mm
13:27 15.3 °C 12.1 °C 1018.8 hPa Calm   9.7 km/h 81 % 3.0 mm
13:32 15.6 °C 12.5 °C 1018.8 hPa Calm   6.4 km/h 82 % 3.0 mm
13:42 17.4 °C 13.9 °C 1018.8 hPa Calm   4.8 km/h 80 % 0.0 mm
13:47 18.0 °C 13.9 °C 1018.8 hPa WNW 1.6 km/h 4.8 km/h 77 % 0.0 mm
13:52 18.1 °C 13.2 °C 1018.8 hPa ENE 4.8 km/h 9.7 km/h 73 % 0.0 mm
13:57 17.2 °C 12.5 °C 1018.8 hPa WSW 1.6 km/h 16.1 km/h 74 % 0.3 mm
14:02 16.8 °C 12.7 °C 1018.8 hPa SW 1.6 km/h 16.1 km/h 77 % 0.3 mm
14:12 17.0 °C 12.9 °C 1018.8 hPa Calm   9.7 km/h 77 % 0.3 mm
14:22 17.9 °C 13.4 °C 1018.8 hPa SW 1.6 km/h 4.8 km/h 75 % 0.3 mm
14:27 18.3 °C 13.0 °C 1018.8 hPa Calm   11.3 km/h 71 % 0.3 mm
14:32 18.7 °C 12.9 °C 1018.8 hPa West 4.8 km/h 12.9 km/h 69 % 0.3 mm
14:37 18.9 °C 13.1 °C 1018.5 hPa ESE 4.8 km/h 12.9 km/h 69 % 0.3 mm
14:42 18.7 °C 12.4 °C 1018.5 hPa Calm   9.7 km/h 67 % 0.3 mm
14:52 17.8 °C 12.3 °C 1018.8 hPa NE 1.6 km/h 12.9 km/h 70 % 0.0 mm
14:57 18.8 °C 12.1 °C 1018.8 hPa East 1.6 km/h 12.9 km/h 65 % 0.0 mm
15:02 19.2 °C 11.7 °C 1018.8 hPa East 1.6 km/h 11.3 km/h 62 % 0.0 mm
15:07 18.6 °C 10.9 °C 1018.8 hPa SE 3.2 km/h 11.3 km/h 61 % 0.0 mm
15:12 17.7 °C 10.6 °C 1018.8 hPa Calm   11.3 km/h 63 % 0.0 mm
15:17 17.1 °C 10.7 °C 1018.8 hPa Calm   11.3 km/h 66 % 0.0 mm
15:22 16.9 °C 10.3 °C 1019.2 hPa Calm   9.7 km/h 65 % 0.0 mm
15:27 16.9 °C 10.3 °C 1018.8 hPa South 1.6 km/h 9.7 km/h 65 % 0.0 mm
15:32 17.0 °C 10.4 °C 1018.8 hPa Calm   4.8 km/h 65 % 0.0 mm
15:42 17.4 °C 11.0 °C 1018.8 hPa SSW 1.6 km/h 6.4 km/h 66 % 0.0 mm
15:47 17.6 °C 10.7 °C 1018.8 hPa Calm   6.4 km/h 64 % 0.0 mm
15:52 17.9 °C 10.8 °C 1018.8 hPa Calm   6.4 km/h 63 % 0.0 mm
15:57 18.4 °C 11.7 °C 1018.8 hPa Calm   4.8 km/h 65 % 0.0 mm
16:02 18.9 °C 11.0 °C 1018.8 hPa WSW 4.8 km/h 8.0 km/h 60 % 0.0 mm
16:12 19.3 °C 11.1 °C 1018.8 hPa NNE 1.6 km/h 8.0 km/h 59 % 0.0 mm
16:17 17.7 °C 9.8 °C 1019.2 hPa NE 4.8 km/h 12.9 km/h 60 % 0.0 mm
16:22 16.4 °C 10.0 °C 1019.5 hPa NE 3.2 km/h 19.3 km/h 66 % 0.0 mm
16:27 15.7 °C 10.9 °C 1019.5 hPa Calm   19.3 km/h 73 % 0.0 mm
16:32 15.3 °C 11.3 °C 1019.2 hPa Calm   19.3 km/h 77 % 0.0 mm
16:37 15.4 °C 12.0 °C 1019.2 hPa Calm   9.7 km/h 80 % 0.0 mm
16:42 15.8 °C 11.8 °C 1019.2 hPa ENE 1.6 km/h 3.2 km/h 77 % 0.0 mm
16:47 16.5 °C 11.8 °C 1018.8 hPa ENE 4.8 km/h 4.8 km/h 74 % 0.0 mm
16:52 17.4 °C 12.3 °C 1018.8 hPa South 3.2 km/h 11.3 km/h 72 % 0.0 mm
16:57 18.2 °C 12.2 °C 1018.8 hPa ENE 1.6 km/h 11.3 km/h 68 % 0.0 mm
17:02 19.0 °C 12.0 °C 1018.8 hPa Calm   11.3 km/h 64 % 0.0 mm
17:07 18.8 °C 11.1 °C 1018.8 hPa East 3.2 km/h 20.9 km/h 61 % 0.0 mm
17:12 18.9 °C 10.5 °C 1019.2 hPa NE 3.2 km/h 20.9 km/h 58 % 0.0 mm
17:17 18.5 °C 10.3 °C 1019.2 hPa SSW 1.6 km/h 20.9 km/h 59 % 0.0 mm
17:22 18.2 °C 10.3 °C 1019.2 hPa Calm   16.1 km/h 60 % 0.0 mm
17:27 18.1 °C 10.2 °C 1019.2 hPa ESE 1.6 km/h 16.1 km/h 60 % 0.0 mm
17:32 18.0 °C 10.1 °C 1019.2 hPa NNE 6.4 km/h 8.0 km/h 60 % 0.0 mm
17:37 18.4 °C 10.7 °C 1019.2 hPa ENE 3.2 km/h 11.3 km/h 61 % 0.0 mm
17:42 18.6 °C 10.7 °C 1019.2 hPa Calm   11.3 km/h 60 % 0.0 mm
17:47 18.5 °C 10.8 °C 1019.5 hPa SE 1.6 km/h 9.7 km/h 61 % 0.0 mm
17:52 18.1 °C 10.2 °C 1019.5 hPa East 3.2 km/h 9.7 km/h 60 % 0.0 mm
18:02 17.1 °C 9.5 °C 1019.5 hPa ENE 3.2 km/h 11.3 km/h 61 % 0.0 mm
18:12 17.1 °C 9.8 °C 1019.5 hPa ENE 3.2 km/h 14.5 km/h 62 % 0.0 mm
18:17 17.7 °C 10.3 °C 1019.5 hPa Calm   12.9 km/h 62 % 0.0 mm
18:22 18.3 °C 9.6 °C 1019.5 hPa NE 6.4 km/h 12.9 km/h 57 % 0.0 mm
18:27 18.7 °C 10.8 °C 1019.5 hPa East 1.6 km/h 8.0 km/h 60 % 0.0 mm
18:32 18.9 °C 9.9 °C 1019.5 hPa ENE 1.6 km/h 8.0 km/h 56 % 0.0 mm
18:42 19.1 °C 10.1 °C 1019.5 hPa Calm   12.9 km/h 56 % 0.0 mm
18:52 18.9 °C 9.7 °C 1019.5 hPa East 4.8 km/h 14.5 km/h 55 % 0.0 mm
18:57 18.6 °C 9.6 °C 1019.5 hPa Calm   14.5 km/h 56 % 0.0 mm
19:07 18.4 °C 9.5 °C 1019.5 hPa Calm   9.7 km/h 56 % 0.0 mm
19:12 18.3 °C 9.4 °C 1019.5 hPa Calm   9.7 km/h 56 % 0.0 mm
19:17 18.2 °C 9.0 °C 1019.5 hPa Calm   8.0 km/h 55 % 0.0 mm
19:22 18.2 °C 9.5 °C 1019.5 hPa Calm   9.7 km/h 57 % 0.0 mm
19:27 18.2 °C 9.8 °C 1019.5 hPa NE 1.6 km/h 9.7 km/h 58 % 0.0 mm
19:32 18.1 °C 9.4 °C 1019.5 hPa ENE 8.0 km/h 9.7 km/h 57 % 0.0 mm
19:37 17.9 °C 9.0 °C 1019.5 hPa NE 1.6 km/h 8.0 km/h 56 % 0.0 mm
19:42 17.9 °C 9.3 °C 1019.5 hPa ENE 1.6 km/h 9.7 km/h 57 % 0.0 mm
19:47 17.8 °C 8.6 °C 1019.5 hPa SSE 1.6 km/h 9.7 km/h 55 % 0.0 mm
19:52 17.8 °C 9.2 °C 1019.9 hPa Calm   12.9 km/h 57 % 0.0 mm
19:57 17.8 °C 9.2 °C 1019.9 hPa Calm   12.9 km/h 57 % 0.0 mm
20:02 17.9 °C 9.5 °C 1019.9 hPa NE 1.6 km/h 12.9 km/h 58 % 0.0 mm
20:07 18.1 °C 9.4 °C 1019.9 hPa ESE 1.6 km/h 6.4 km/h 57 % 0.0 mm
20:12 17.9 °C 9.0 °C 1019.9 hPa Calm   12.9 km/h 56 % 0.0 mm
20:17 17.8 °C 9.2 °C 1019.9 hPa Calm   12.9 km/h 57 % 0.0 mm
20:22 17.7 °C 9.3 °C 1019.9 hPa ENE 1.6 km/h 12.9 km/h 58 % 0.0 mm
20:27 17.4 °C 8.3 °C 1019.9 hPa Calm   9.7 km/h 55 % 0.0 mm
20:32 17.2 °C 8.9 °C 1019.9 hPa Calm   8.0 km/h 58 % 0.0 mm
20:37 16.9 °C 8.6 °C 1019.9 hPa Calm   8.0 km/h 58 % 0.0 mm
20:42 16.8 °C 8.5 °C 1019.9 hPa Calm   8.0 km/h 58 % 0.0 mm
20:47 16.6 °C 8.8 °C 1020.2 hPa NNE 1.6 km/h 8.0 km/h 60 % 0.0 mm
20:52 16.4 °C 8.6 °C 1020.2 hPa Calm   8.0 km/h 60 % 0.0 mm
20:57 16.2 °C 8.9 °C 1020.2 hPa Calm   8.0 km/h 62 % 0.0 mm
21:02 15.9 °C 9.1 °C 1020.2 hPa Calm   4.8 km/h 64 % 0.0 mm
21:07 15.6 °C 9.3 °C 1020.2 hPa Calm   1.6 km/h 66 % 0.0 mm
21:12 15.2 °C 9.3 °C 1020.2 hPa Calm     68 % 0.0 mm
21:17 14.7 °C 9.3 °C 1020.2 hPa Calm     70 % 0.0 mm
21:22 14.4 °C 9.2 °C 1020.2 hPa Calm     71 % 0.0 mm
21:27 14.1 °C 9.3 °C 1020.2 hPa Calm     73 % 0.0 mm
21:32 13.8 °C 9.2 °C 1020.2 hPa Calm     74 % 0.0 mm
21:37 13.6 °C 9.3 °C 1020.5 hPa Calm     75 % 0.0 mm
21:42 13.4 °C 9.3 °C 1020.5 hPa Calm     76 % 0.0 mm
21:47 13.1 °C 9.0 °C 1020.5 hPa Calm     76 % 0.0 mm
21:52 12.8 °C 8.9 °C 1020.5 hPa Calm     77 % 0.0 mm
21:57 12.6 °C 8.7 °C 1020.5 hPa Calm     77 % 0.0 mm
22:02 12.4 °C 9.0 °C 1020.5 hPa Calm     80 % 0.0 mm
22:07 12.2 °C 9.4 °C 1020.5 hPa Calm     83 % 0.0 mm
22:12 12.1 °C 9.5 °C 1020.5 hPa Calm     84 % 0.0 mm
22:17 12.0 °C 9.6 °C 1020.9 hPa Calm     85 % 0.0 mm
22:22 12.0 °C 9.7 °C 1020.9 hPa Calm     86 % 0.0 mm
22:27 12.1 °C 9.8 °C 1020.9 hPa Calm     86 % 0.0 mm
22:32 12.2 °C 10.3 °C 1021.6 hPa NE 4.8 km/h   88 % 0.0 mm
22:37 12.7 °C 10.1 °C 1021.6 hPa Calm   8.0 km/h 84 % 0.0 mm
22:42 12.9 °C 10.1 °C 1021.9 hPa NE 3.2 km/h 8.0 km/h 83 % 0.0 mm
22:47 12.7 °C 10.4 °C 1021.9 hPa Calm   9.7 km/h 86 % 0.8 mm
22:52 12.4 °C 10.5 °C 1021.6 hPa Calm   9.7 km/h 88 % 1.8 mm
22:57 12.3 °C 10.5 °C 1021.6 hPa Calm   9.7 km/h 89 % 2.3 mm
23:02 12.1 °C 10.3 °C 1021.6 hPa Calm   1.6 km/h 89 % 2.3 mm
23:07 11.9 °C 10.3 °C 1021.6 hPa Calm   1.6 km/h 90 % 2.3 mm
23:12 11.8 °C 10.2 °C 1021.6 hPa Calm     90 % 2.3 mm
23:17 11.7 °C 10.3 °C 1021.6 hPa Calm     91 % 2.3 mm
23:22 11.6 °C 10.2 °C 1021.6 hPa Calm     91 % 2.3 mm
23:27 11.6 °C 10.3 °C 1021.6 hPa Calm     92 % 2.3 mm
23:32 11.5 °C 10.2 °C 1021.6 hPa Calm     92 % 2.3 mm
23:37 11.4 °C 10.3 °C 1021.6 hPa Calm     93 % 2.3 mm
23:42 11.3 °C 10.0 °C 1021.6 hPa Calm     92 % 1.8 mm
23:47 11.1 °C 9.8 °C 1021.6 hPa Calm     92 % 1.0 mm
23:52 10.9 °C 9.7 °C 1021.6 hPa Calm     92 % 0.0 mm
23:57 10.7 °C 9.6 °C 1021.6 hPa Calm     93 % 0.0 mm
Meteo18
Compliments of Weather Underground - 4 mb

Script developed by  Jim McMurry - jmcmurry@mwt.net Adapted for the template by  Wim van der Kuil - Leuven-Template.eu

You find our weather info also at:

European Weather Network

Weather Underground

Equipment we use:

Weather-station
Davis Vue

Weather-program
Meteohub

Weather-server
Raspberry PI 2 B+

Provider
1 and 1

Davis Vue

Meteohub

Raspberry PI 2 B+

1 and 1